Погода в Балтае

Россия / Саратовская область     52°28′04″N   46°37′35″E
темп.,
°C
ветер,
м/с
пор.,
м/с
влажн.,
%
обл.,
%
осадки,
мм/ч
давл.,
гПа
погр.,
м
6 марта, сб
сб601:00−10сз339228 0.0 101431
04:00−11зсз349443 0.0 101656
07:00−12сз239482 0.0 101625
10:00−9ссз249390 0.0 1017137
13:00−5с2286100 0.0 1016267
16:00−5ссв1283100 0.0 1015363
19:00−7ююв1294100 0.0 101422
22:00−7вюв1197100 0.6 101421
7 марта, вс
вс701:00−9ююв0097100 0.5 101321
04:00−9ссз239699 0.8 101350
07:00−13сз339379 0.0 101442
10:00−11зсз479354 0.0 1014226
13:00−8зюз69870 0.0 1013550
16:00−7юз7118524 0.0 1011745
19:00−7ююз71588100 0.0 1008876
22:00−5ююз81785100 0.4 10051101
8 марта, пн
пн801:00−4юз101793100 1.1 10011032
04:00−4юз71693100 1.5 1001805
07:00−3зюз71295100 0.6 1001728
10:00−5з7138672 0.6 1002791
13:00−3зюз8147866 0.1 10031490
16:00−3зюз8148183 0.2 10031510
19:00−6з7138292 0.3 1004910
22:00−10зсз7158954 0.3 1008431
9 марта, вт
вт901:00−12зсз6139211 0.0 1010277
04:00−15зсз4109518 0.0 1011167
07:00−16зсз469634 0.0 1013103
10:00−13зсз369328 0.0 1015229
13:00−10зсз348764 0.0 1015357
16:00−9сз348677 0.0 1015499
19:00−12сз2292100 0.0 101521
22:00−13ссз459496 0.0 101790
10 марта, ср
ср1001:00−17с449586 0.0 101777
04:00−18ссз479393 0.0 1018126
07:00−18ссз4992100 0.0 1019219
10:00−19ссз599183 0.0 1020291
13:00−16ссз58870 0.0 1022530
16:00−15сз688443 0.0 1022744
19:00−19сз599293 0.0 1023204
22:00−23сз469457 0.0 102585